Location: Katzenstein
(51.7484°N, 10.2155°E)
Time: 18:25:56
(UTC+00:00)

Cosmos 1743 Rocket - Pass Details

Date: 17 February 2020
Orbit: 604 x 633 km, 82.6° (Epoch: 27 March)

Event Time Altitude Azimuth Distance (km) Brightness Sun altitude
Rises 05:05:45 0° 342° (NNW) 2,877 6.8 -13.8°
Reaches altitude 10° 05:08:08 10° 332° (NNW) 1,966 5.8 -13.4°
Maximum altitude 05:11:59 32° 270° (W) 1,055 4.2 -12.8°
Drops below altitude 10° 05:15:49 10° 207° (SSW) 1,951 5.9 -12.2°
Sets 05:18:11 0° 198° (SSW) 2,851 6.8 -11.8°
